User: anonymous   Login
Location: Oshawa
(43.9000°N, 78.8670°W)
Time: 16:45:08
(UTC-04:00)
Language:

Cosmos 839 Rocket - Orbit

View from above orbital plane
View from above orbital plane
View from above satellite
View from above satellite

Ground track
Ground track

The orbit data is extracted from the following two-line orbital elements,

1 09013U 76067B   14302.87034365 -.00000128  00000-0 -25095-3 0  5561
2 09013 065.8674 072.8535 0705852 089.6592 066.7613 12.35311406727907
Epoch (UTC): 29 October 2014 20:53:17
Eccentricity: 0.0705852
inclination: 65.8674°
perigee height: 968 km
apogee height: 2084 km
right ascension of ascending node: 72.8535°
argument of perigee: 89.6592°
revolutions per day: 12.35311406
mean anomaly at epoch: 66.7613°
orbit number at epoch: 72790

The dashed part of the orbit path shows where the satellite is in the earth's shadow,  

DLR